www.pogodaiklimat.ru

ПОГОДА в Тетерборо, NJ

  • Прогноз погоды в Тетерборо
  • Монитор погоды в Тетерборо
  • Климат в Тетерборо

АРХИВ ПОГОДЫ в Тетерборо

Время (UTC), дата Ветер
(напр.,м/с)
 
Видим.   Явления Облачность Т
(С)
Тd
(С)
f
(%)
Тe
(С)
Тes
(С)
Комфортность

P
(гПа)

Po
(гПа)
Тmin
(С)
Tmax
(С)
R
(мм)
SD
(см)
10:51 20.05 ЮЗ  16 км    ясно  +21.7  +18.9  84  +27  +27  душно  1009.8  1009.5  +19.4  +21.7  0.3   
11:51 20.05 З  16 км    ясно  +23.9  +18.9  74  +29  +30  душно  1009.9  1009.5         
12:51 20.05 З  6
{10} 
16 км    ясно  +25.6  +18.9  66  +31  +33  очень
душно 
1009.6  1009.1         
13:51 20.05 ЮЗ  8
{11} 
16 км    ясно  +27.8  +17.8  55  +32  +33  душно  1008.7  1008.5         
14:51 20.05 З  6
{9} 
16 км    2/2 1290 м  +28.3  +18.3  55  +33  +37  очень
душно 
1008.6  1008.5         
15:51 20.05 ЮЗ  8
{14} 
16 км    8/8 1470 м  +29.4  +17.2  48  +33  +34  душно  1008.1  1007.8         
16:51 20.05 ЮЗ  9
{13} 
16 км    5/2 1800 м
[средняя] 
+29.4  +16.7  46  +33  +33  душно  1007.3  1007.1  +21.7  +30.0     
17:51 20.05 З  7
{14} 
16 км    5/2 1800 м
[средняя] 
+30.6  +16.7  43  +34  +36  очень
душно 
1006.4  1006.1         
18:51 20.05 З  7
{11} 
16 км    2/2 1800 м
[средняя] 
+31.1  +16.7  42  +34  +37  душно  1005.3  1005.1         
19:51 20.05 З  8
{14} 
16 км    8/0 2100 м
[средняя] 
+28.9  +15.6  44  +32  +32  душно  1005.1  1004.7         
20:51 20.05 З  6
{10} 
16 км    8/2 1800 м
[средняя] 
+28.3  +16.7  49  +32  +33  душно  1005.2  1004.7         
21:51 20.05 З  5
{8} 
16 км    ясно  +28.3  +16.7  49  +32  +33  душно  1005.3  1005.1         
22:51 20.05 З  4
{11} 
16 км    ясно  +27.2  +14.4  45  +29  +30  жарко  1005.6  1005.4  +27.2  +31.1     
23:51 20.05 З  16 км    ясно  +26.1  +11.7  41  +27  +27  жарко  1006.1  1005.7         
00:51 21.05 З  16 км    ясно  +25.0  +10.6  40  +26  +26  жарко  1006.3  1006.1         
01:51 21.05 З  16 км    ясно  +25.0  +10.0  39  +26  +26  жарко  1006.9  1006.8         
02:19 21.05 СЗ  8
{13} 
16 км    ясно  +22.2  +12.8  55  +25  +25  комфорт    1007.8         
02:51 21.05 СЗ  7
{10} 
16 км    ясно  +21.1  +11.7  55  +23  +23  комфорт  1008.7  1008.5         
03:51 21.05 СЗ  6
{11} 
16 км    ясно  +19.4  +9.4  52  +20  +20    1009.2  1008.8         
04:51 21.05 СЗ  16 км    ясно  +17.8  +8.9  56  +18  +18    1009.2  1008.8  +17.8  +27.8     
05:51 21.05 СЗ  16 км    2/2 1380 м  +17.2  +8.3  56  +17  +17    1010.1  1009.8         
06:51 21.05 СЗ  16 км    ясно  +16.1  +6.1  51  +15  +15    1010.3  1010.1         
07:51 21.05 СЗ  7
{10} 
16 км    8/8 1470 м  +15.6  +5.6  51  +14  +14    1010.8  1010.5         
08:51 21.05 СЗ  6
{8} 
16 км    10/10 1410 м  +15.0  +5.6  53  +13  +13    1011.5  1011.2         
09:51 21.05 СЗ  7
{11} 
16 км    10/10 1350 м  +14.4  +5.6  55  +12  +12    1012.4  1012.2         
10:51 21.05 СЗ  9
{14} 
16 км    8/8 1350 м  +14.4  +3.9  49  +12  +12    1013.6  1013.2  +13.9  +17.8     
11:51 21.05 СЗ  8
{12} 
16 км    8/8 1320 м  +14.4  +3.9  49  +12  +12    1013.5  1013.2         
12:51 21.05 СЗ  7
{11} 
16 км    2/2 1440 м  +15.6  +3.9  46  +14  +15    1013.7  1013.5         
13:51 21.05 СЗ  7
{11} 
16 км    ясно  +17.2  +3.9  41  +16  +18    1013.9  1013.5         
14:51 21.05 СЗ  7
{11} 
16 км    ясно  +17.8  +4.4  41  +17  +20    1013.7  1013.5         
15:51 21.05 З  6
{12} 
16 км    ясно  +19.4  +5.6  40  +19  +24    1013.3  1013.2         
16:51 21.05 СЗ  7
{13} 
16 км    ясно  +20.6  +5.0  36  +21  +24  комфорт  1012.7  1012.5  +13.3  +20.6     
17:51 21.05 СЗ  9
{13} 
16 км    ясно  +21.7  +3.9  31  +22  +22  комфорт  1012.6  1012.2         
18:51 21.05 С  7
{13} 
16 км    ясно  +22.8  +3.9  29  +23  +25  комфорт  1012.7  1012.5         
19:51 21.05 СЗ  9
{13} 
16 км    ясно  +22.2  +2.8  28  +22  +22  комфорт  1012.9  1012.5         
20:51 21.05 С  7
{10} 
16 км    ясно  +22.2  +1.7  26  +22  +23  комфорт  1013.8  1013.5         
21:51 21.05 СЗ  9
{11} 
16 км    ясно  +21.1  +1.1  26  +21  +21  комфорт  1014.2  1013.9         
22:51 21.05 С  6
{10} 
16 км    ясно  +19.4  +1.1  29  +19  +19    1015.8  1015.6  +19.4  +22.8     
23:51 21.05 С  7
{10} 
16 км    ясно  +17.8  +1.7  34  +17  +17    1017.2  1016.9         
00:51 22.05 СЗ  16 км    ясно  +16.1  +2.8  41  +16  +16    1018.3  1017.9         
01:51 22.05 СЗ  16 км    ясно  +16.1  +2.2  39  +15  +15    1019.1  1018.9         
02:51 22.05 СЗ  16 км    ясно  +15.0  +2.2  42  +14  +14    1019.2  1018.9         
03:51 22.05 СЗ  16 км    ясно  +14.4  +2.2  44  +13  +13    1019.4  1019.3         
04:51 22.05 СЗ  16 км    ясно  +13.3  +2.8  49  +12  +12    1020.1  1020.0  +13.3  +19.4     
05:51 22.05 С  16 км    ясно  +13.3  +2.8  49  +13  +13    1020.1  1020.0         
06:51 22.05 СЗ  16 км    ясно  +12.2  +2.8  53  +12  +12    1020.3  1020.0         
07:51 22.05   16 км    ясно  +12.8  +2.8  51  +13  +13    1020.7  1020.3         
08:51 22.05   16 км    ясно  +10.6  +3.9  63  +10  +10    1021.7  1021.3         

 

Местоположение метеостанции Teterboro Airport: широта 40.8589 долгота -74.0567 высота над уровнем моря 2 м.

В архиве по умолчанию представлена погода в Тетерборо за последние 1-2 суток. Обновление информации о фактической погоде в базе происходит ежечасно! Архивные данные за месяц целиком и за предыдущие месяцы Вы можете получить, выбрав интересующий диапазон дат из раскрывающегося списка и нажав кнопку "Ввод!".

Внимание! Архив погоды МЕТАР в базе сайта хранится не более 60 дней. Нет смысла пытаться выбрать более раннюю дату.

Внимание! Время в таблицах - всемирное. Для получения местного времени необходимо прибавить поправку, которая в Тетерборо равна -5 ч.

Ветер - указаны скорость ветра в м/с и направление, откуда дует ветер: С - северный, СВ - северо-восточный, В - восточный, ЮВ - юго-восточный, Ю - южный, ЮЗ - юго-западный, З - западный, СЗ - северо-западный.
Видимость - горизонтальная дальность видимости в метрах или километрах. При видимости от 1 до 10 км при отсутствии осадков обычно наблюдается дымка, при ухудшении видимости до 1 км и менее - туман. В сухую погоду видимость может ухудшаться дымом, пылью или мглою.
Атмосферные явления - указаны явления, наблюдавшиеся в указанный момент времени.
Облачность - указаны через наклонную черту верхняя и нижняя облачность в баллах и высота нижней границы облаков в метрах. Внимание: облачность, как и прочие метеорологические величины в США измеряются автоматическими метеостанциями. Указанные значения в баллах носят условный характер и показывают процент времени, в течение которого, в среднем, лазерный луч высотомера отражался от облаков обратно.
T - Температура воздуха - температура, измеренная на высоте 2 м над землей.
Td - Температура точки росы - температура, при понижении до которой содержащийся в воздухе водяной пар достигнет насыщения.
f - Относительная влажность воздуха - влажноcть воздуха, измеренная на высоте 2 м над землей.
Te - Эффективная температура - температура, которую ощущает одетый по сезону человек в тени. Характеристика душности погоды. При расчете учитывается влияние влажности воздуха и скорости ветра на теплоощущения человека.
Tes - Эффективная температура на солнце - температура, которую ощущает человек, с поправкой на солнечный нагрев. Характеристика знойности погоды. Зависит от высоты солнца над горизонтом, облачности и скорости ветра. Ночью, в пасмурную погоду, а также при ветре 12 м/с и более поправка равна нулю.
P - Атмосферное давление - приведенное к уровню моря атмосферное давление.
Po - Атмосферное давление - измеренное на уровне метеостанции атмосферное давление.
Tmin - Минимальная температура - минимум температуры воздуха на высоте 2 м над землей.
Tmax - Максимальная температура - максимум температуры воздуха на высоте 2 м над землей.
R - Количество осадков - Количество выпавших осадков за 3 или 6 часов, мм.
SD - Снежный покров - Высота снежного покрова, см.